カタログに戻る

STARLINK-37273

運用中通信VLEO
NORAD 68723·PAYLOAD·🇺🇸 United States

打ち上げ Apr 14, 2026 から Cape Canaveral Space Force Station

Loading…

次のパス (今後24時間)

TLE

最新Source: CelesTrak SupGP

元期: Sep 15, 2026, 03:38 UTC

1 68723C 26081AA  26258.15187500 -.00037429  00000+0 -11059-2 0  2585
2 68723  53.1584 230.6063 0001437  83.6429 111.4643 15.34407488    16

AllMySatでSTARLINK-37273をリアルタイム追跡

Download on the App Store